SCP
-0 -0 -0 -0 -0 -0 -0 -0 -0 0 -0 0 -0 0 0 0 0 0 0 0 0 0 0 0 0 0 0 0 0 0 0 0 0 0 0 0 0 0 0 0 0 0 0 0
-0 -0 -0 -0 -0 -0 -0 -0 -0 0 -0 -0 0 0 0 0 0 0 0 0 0 0 0 0 0 0 0 0 0 0 0 0 0 0 0 0 0 0 0 0 0 0 0 0
-0 -0 -0 -0 -0 -0 0 -0 -0 0 0 0 0 0 0 0 0 0 0 0 0 0 0 0 0 0 0 0 0 0 0 0 0 0 0 0 0 0 0 0 0 0 0 0
-0 -0 -0 -0 -0 -0 0 0 0 0 0 0 0 0 0 0 0 0 0 0 0 0 0 0 0 0 0 0 0 0 0 0 0 0 0 0 0 0 0 0 0 0 0 0
0 0 0 0 -0 -0 0 0 0 0 0 0 0 0 0 0 0 0 0 0 0 0 0 0 0 0 0 0 0 0 0 0 0 0 0 0 0 0 0 0 0 0 0 0
0 0 0 0 -0 -0 0 0 0 0 0 0 0 0 0 0 0 0 0 0 0 0 0 0 0 0 0 0 0 0 0 0 0 0 0 0 0 -0 -0 0 0 -0 0 0
0 0 0 0 0 0 0 0 0 0 0 0 0 0 0 0 0 0 0 0 0 0 0 0 0 0 0 0 0 0 0 0 0 0 0 0 0 0 0 0 0 0 0 0
0 0 0 0 0 0 0 0 0 0 0 0 0 0 0 0 0 0 0 0 0 0 0 0 0 0 0 0 0 0 -0 0 0 0 0 0 -0 0 0 0 0 0 0 0
0 0 0 0 0 0 0 0 0 0 0 0 0 0 0 0 0 0 0 0 0 0 0 0 0 0 0 0 0 0 0 0 0 0 0 0 0 0 0 0 0 0 0 0
0 0 0 0 0 0 0 0 0 0 0 0 0 0 0 0 0 0 0 0 0 0 0 0 0 0 0 0 0 0 0 0 0 0 0 0 0 0 0 0 0 0 0 0
0 0 0 0 0 0 0 0 0 0 0 0 0 0 0 0 0 0 0 0 0 0 0 0 0 0 0 0 0 0 0 0 0 0 0 0 0 0 0 0 0 0 0 -0
0 0 0 0 0 0 0 0 0 0 0 0 0 0 0 0 -0 0 0 0 0 0 0 0 0 0 0 0 0 0 0 0 0 0 0 0 0 -0 0 0 0 -0 -0 -0
0 0 0 0 0 0 0 0 0 0 0 0 0 0 0 0 0 0 0 0 0 0 0 0 0 0 0 0 0 0 0 0 0 0 0 0 0 0 0 0 -0 -0 -0 -0
0 0 0 0 0 0 0 0 0 0 0 0 0 0 0 0 0 0 0 0 0 0 0 0 0 0 0 0 0 0 0 0 0 -0 0 0 0 0 0 -0 0 -0 -0 -0
0 0 0 0 0 0 0 0 0 0 0 0 0 0 0 0 0 0 0 0 0 0 0 0 0 0 0 0 0 -0 0 0 0 0 0 0 0 0 -0 -0 -0 -0 -0 -0
0 0 0 0 0 0 0 0 0 0 0 0 0 0 0 0 0 0 0 0 0 0 0 0 0 -0 0 0 0 0 0 0 0 0 0 0 0 -0 -0 -0 -0 -0 -0 -0
0 0 -0 0 0 0 0 0 0 0 0 0 0 0 0 0 0 0 0 0 0 0 0 0 0 0 0 0 0 0 0 0 0 0 0 0 -0 -0 -0 -0 -0 -0 -0 -0
0 0 0 0 0 0 0 0 0 0 0 0 0 0 0 0 0 0 0 0 0 0 0 0 0 0 0 0 -0 0 0 0 0 0 0 -0 -0 0 -0 -0 -0 -0 -0 -0
0 0 0 0 0 0 0 0 0 0 0 0 0 0 0 0 0 0 0 0 0 0 0 0 0 0 -0 -0 0 0 0 0 0 0 0 0 0 -0 -0 -0 -0 -0 0 -0
0 0 0 0 0 -0 0 0 0 0 0 0 0 0 0 0 0 0 0 0 0 0 0 0 0 -0 -0 -0 -0 0 0 0 0 0 0 0 -0 -0 -0 -0 -0 0 -0 0
0 0 0 0 0 0 0 0 0 0 0 0 0 -0 0 0 0 0 0 0 0 -0 0 -0 0 0 0 0 0 0 0 -0 0 -0 -0 -0 -0 -0 -0 -0 0 0 0 0
0 0 0 0 0 0 0 0 0 0 0 0 0 0 0 0 0 0 0 0 0 -0 0 -0 -0 0 0 0 0 0 -0 -0 -0 -0 -0 -0 -0 -0 -0 0 0 0 0 0
0 0 0 0 0 0 0 0 0 0 0 0 0 0 0 0 0 0 0 -0 -0 0 -0 -0 -0 -0 0 0 0 0 -0 -0 -0 -0 -0 -0 -0 0 0 0 0 0 0 0
0 0 0 0 0 0 0 0 0 0 0 0 0 0 0 0 -0 -0 0 0 -0 0 -0 0 0 -0 0 0 0 -0 0 0 0 0 0 0 0 0 0 0 0 0 0 0
0 0 0 0 0 0 0 0 0 0 0 0 0 0 0 0 0 -0 0 -0 -0 0 0 -0 -0 0 0 -0 -0 -0 0 -0 -0 -0 -0 -0 -0 0 0 -0 -0 0 0 0
0 0 0 0 0 0 0 0 0 0 0 0 -0 -0 0 -0 0 0 0 -0 0 0 -0 -0 -0 0 0 -0 -0 -0 -0 -0 -0 -0 -0 -0 0 -0 -0 -0 0 -0 0 0
0 0 0 0 0 0 0 0 0 0 0 -0 -0 -0 -0 0 0 0 -0 -0 -0 -0 -0 -0 -0 -0 0 0 -0 -0 -0 -0 0 -0 -0 0 -0 -0 -0 -0 -0 -0 0 0
Wind_Speed_500mb
42 39 38 38 44 37 13 5 6 7 7 21 6 6 6 6 2 1 7 8 12 9 10 13 7 13 4 8 12 17 9 7 25 42 40 38 30 38 30 11 20 26 23 16
37 37 34 30 38 39 15 11 6 9 5 9 7 8 6 4 5 3 8 7 2 9 11 10 9 13 3 13 11 7 5 8 16 26 31 29 27 25 29 26 26 39 28 25
34 30 26 25 30 30 9 11 5 8 1 6 14 2 4 7 7 14 12 14 11 11 15 17 15 12 6 11 7 7 7 25 29 28 39 11 17 32 34 25 17 29 38 47
30 25 22 23 21 19 13 7 6 6 2 9 8 8 4 7 4 4 4 6 8 10 11 14 25 27 25 9 16 16 8 18 32 39 42 43 46 42 40 41 42 40 43 46
27 18 19 20 16 15 9 15 11 4 7 4 10 5 5 6 5 6 3 9 15 9 17 22 33 24 25 25 22 20 18 15 31 40 36 39 43 43 43 46 44 38 47 51
29 15 11 13 15 15 9 8 6 10 13 6 9 5 6 1 6 4 6 15 13 19 20 28 37 41 42 31 22 20 10 6 13 26 24 26 28 33 35 33 29 32 33 28
24 12 9 11 11 7 8 7 7 12 2 6 6 2 7 13 9 16 18 15 21 18 28 39 45 52 53 50 39 37 17 28 8 17 23 21 18 7 10 12 22 22 24 24
21 14 12 10 9 6 7 7 7 8 10 7 7 4 6 15 18 21 17 17 15 21 28 21 22 21 22 34 38 33 38 22 6 11 18 31 42 12 4 11 21 23 22 22
20 18 14 10 8 6 4 5 3 4 10 4 9 10 7 13 14 14 4 6 15 18 16 14 16 10 25 5 5 5 14 18 9 18 13 16 13 3 12 15 19 20 25 26
19 15 13 16 12 7 3 7 2 3 15 4 2 7 7 6 11 10 15 7 8 5 5 7 13 17 8 11 4 6 7 7 16 23 16 15 10 4 9 15 9 29 29 42
18 15 13 11 9 6 4 6 4 2 10 22 15 7 13 10 10 7 5 16 11 10 7 7 6 12 8 12 12 9 14 8 9 13 10 16 23 10 11 19 34 39 46 52
21 14 16 13 11 9 8 9 14 10 10 21 26 30 29 28 26 16 9 15 6 8 6 2 9 10 9 16 8 5 9 6 4 8 7 9 11 23 18 17 30 43 52 58
21 18 21 17 13 9 10 15 17 11 9 25 10 3 7 11 20 28 14 8 10 12 12 9 6 9 13 13 13 14 10 11 8 14 10 12 32 11 13 28 40 50 52 59
26 22 17 20 15 15 15 14 13 19 6 4 1 2 11 15 12 19 29 26 12 6 4 4 6 9 9 12 14 18 21 17 25 31 29 25 11 20 33 42 46 52 57 56
23 24 24 22 18 17 16 21 16 21 7 6 20 38 13 17 23 27 27 22 22 11 4 4 6 15 14 22 22 23 12 16 12 15 13 17 26 36 40 43 51 51 57 64
21 19 22 23 20 17 13 9 18 28 17 6 7 6 14 10 11 12 15 16 16 12 8 8 17 26 10 8 13 21 24 24 15 17 24 28 34 38 39 47 49 52 54 58
23 26 25 25 19 20 13 2 6 9 13 4 9 5 10 12 11 9 12 15 7 12 7 14 31 20 14 7 22 33 21 13 15 18 22 29 33 41 43 45 48 51 56 58
19 24 21 19 20 13 14 17 10 11 6 5 5 8 8 15 10 12 14 12 13 15 9 11 12 9 13 10 20 11 9 15 13 12 20 34 40 39 41 42 48 55 58 62
18 24 16 11 15 12 10 15 18 10 7 6 7 6 2 10 8 7 8 11 7 10 10 9 8 7 11 18 18 14 15 11 20 26 32 34 34 36 40 44 49 54 62 66
27 21 9 8 9 12 14 8 8 6 5 9 8 12 8 5 7 7 5 10 6 6 12 10 5 11 36 27 16 8 9 13 22 31 33 34 35 39 44 45 48 54 61 67
27 13 8 13 27 14 5 6 7 9 8 13 14 21 11 0 7 2 5 3 6 6 7 7 7 7 3 6 3 3 10 19 24 25 28 30 35 40 41 44 49 53 60 65
18 14 22 22 8 5 6 7 8 8 7 17 12 10 11 4 5 3 5 5 6 8 10 6 6 6 12 7 5 8 16 19 21 24 28 30 31 34 37 43 48 52 59 63
21 8 10 9 7 7 10 12 9 9 13 12 11 7 9 7 6 6 7 9 10 4 6 6 6 12 9 6 11 14 14 18 22 22 24 27 31 34 36 41 45 52 59 60
9 10 9 10 10 12 12 9 7 8 8 7 7 7 8 8 10 8 9 10 6 7 8 3 7 14 11 11 11 14 17 19 20 23 26 30 33 36 37 40 46 53 58 58
7 7 8 15 20 9 8 8 1 7 8 7 9 3 5 5 8 6 8 7 7 5 6 4 15 11 11 12 13 15 17 19 21 25 29 33 36 38 40 42 46 51 52 56
6 8 9 19 15 17 20 9 6 14 15 10 5 2 4 9 5 7 9 4 3 3 3 14 12 11 12 12 13 15 16 18 22 25 29 32 35 37 38 41 46 50 50 56
8 12 23 25 18 5 6 10 4 12 12 5 4 7 10 5 7 8 6 4 3 1 10 14 11 11 10 11 13 14 17 20 23 26 28 30 32 33 36 45 49 48 50 52
Wind_Direction_500mb
336 343 344 347 351 4 32 247 253 354 285 254 301 15 38 21 56 242 281 285 266 267 282 300 276 257 197 2 321 251 265 273 274 270 278 271 249 267 249 239 259 257 284 275
334 343 347 352 355 0 11 315 3 345 286 274 190 106 162 294 259 281 303 284 327 351 310 294 269 267 26 336 315 339 352 247 289 276 236 236 252 245 257 263 273 262 265 259
330 338 350 357 358 360 40 290 231 118 349 28 325 355 189 226 125 276 287 287 291 274 259 260 276 262 2 331 333 63 326 271 263 270 293 252 275 280 276 261 267 273 260 278
322 331 342 352 358 27 16 331 75 358 10 88 347 279 44 261 243 182 265 231 319 329 278 268 247 253 259 275 251 226 257 262 266 272 273 280 281 278 274 266 261 259 272 282
323 325 346 2 9 50 24 336 326 171 100 280 271 133 137 295 101 279 231 260 6 330 284 298 299 300 284 272 254 269 175 261 267 274 265 257 262 264 258 254 256 251 253 256
327 311 342 358 12 34 14 2 338 291 107 178 261 58 24 215 316 204 326 343 295 287 296 294 284 275 269 263 260 268 237 257 272 263 284 290 266 260 273 250 261 268 275 296
321 298 318 341 355 24 22 351 304 283 179 262 357 336 301 298 327 299 298 284 290 294 302 294 277 260 254 250 240 229 232 262 274 284 299 259 300 160 312 295 288 300 308 330
301 306 297 303 321 359 57 6 344 322 282 320 203 198 317 279 276 246 269 283 291 307 299 291 282 256 236 238 230 226 212 229 250 255 259 285 275 309 212 348 303 335 340 352
295 291 290 293 274 302 96 303 49 312 272 14 26 283 265 293 294 274 225 305 299 301 284 261 266 292 309 204 161 202 174 209 229 260 258 271 113 261 1 318 269 34 1 325
282 280 279 307 241 264 178 293 147 301 284 3 194 292 314 268 313 295 303 301 306 264 264 265 262 266 277 264 234 176 186 179 224 242 252 279 49 54 304 260 358 309 309 314
270 270 264 285 260 253 211 258 271 213 277 302 269 259 229 240 257 254 5 269 213 235 240 274 290 287 284 268 255 207 199 227 213 238 246 244 358 331 335 343 329 325 316 314
252 257 249 263 267 240 239 229 290 283 245 280 288 263 254 245 247 246 241 314 284 346 285 286 284 274 292 305 284 298 279 233 335 255 303 291 295 263 315 338 317 311 313 314
253 250 237 245 252 246 246 257 299 299 298 304 242 209 231 222 242 229 245 235 249 253 296 326 302 282 293 275 284 290 291 188 236 290 237 327 289 330 351 327 309 314 312 312
246 238 242 237 240 245 252 271 278 277 288 287 262 191 252 229 240 218 230 246 267 285 273 237 266 265 279 281 281 284 286 287 282 273 270 335 331 340 327 315 313 317 313 314
241 236 237 230 235 248 258 266 261 257 236 318 293 294 276 228 237 234 230 227 223 202 241 209 246 258 281 270 279 270 328 284 282 290 323 311 309 315 312 318 319 317 316 315
240 238 217 218 229 245 268 242 262 246 244 309 291 18 251 212 201 215 204 211 197 190 207 260 257 264 265 283 266 282 327 319 310 304 314 305 306 303 320 317 316 316 314 315
224 213 212 216 226 247 194 294 164 147 177 224 268 204 151 174 168 155 164 186 202 212 225 239 252 255 222 264 274 291 305 294 304 293 308 307 312 318 317 315 316 316 316 317
215 193 205 217 217 235 249 244 217 196 233 224 272 276 194 177 183 185 185 187 196 213 241 240 237 223 227 252 261 275 309 318 311 316 299 300 310 316 318 318 319 320 321 323
190 178 201 202 235 207 227 219 208 206 191 263 216 259 6 167 193 197 173 212 217 212 221 248 219 247 231 255 312 313 325 339 319 312 309 315 318 320 322 322 322 323 323 326
159 171 162 175 189 179 144 146 167 224 227 223 258 239 246 201 209 199 139 209 224 232 209 150 226 258 252 262 295 322 337 321 318 318 321 322 321 324 322 323 322 322 324 326
173 177 149 152 151 153 186 177 210 175 217 210 230 238 252 70 246 242 176 263 258 256 164 223 223 253 115 150 88 330 323 317 319 316 313 315 319 320 322 322 323 325 328 330
187 175 137 150 175 184 238 208 166 219 236 186 218 177 198 164 226 251 215 254 251 257 168 233 239 106 102 77 23 313 321 326 325 326 323 324 323 323 324 323 325 329 330 332
143 146 144 165 156 203 224 199 202 195 198 167 182 167 158 170 181 225 235 240 224 154 233 242 58 106 61 28 357 340 334 338 336 335 333 333 330 330 332 331 330 333 334 336
176 171 163 221 178 234 214 246 40 87 87 119 157 157 219 203 186 239 238 231 191 224 215 230 91 57 48 24 10 359 350 350 349 348 343 342 341 339 339 336 336 336 337 339
201 192 223 213 237 219 135 246 177 124 127 121 106 161 242 258 254 253 281 247 244 332 28 79 70 54 50 43 24 9 3 359 355 352 347 346 346 346 342 342 342 341 340 342
211 228 256 235 256 219 196 183 240 168 145 124 141 214 218 219 227 242 241 253 256 330 48 78 94 75 62 44 24 13 9 2 356 354 353 352 350 350 346 348 349 349 348 349
215 234 236 261 291 189 200 226 238 167 145 143 171 222 225 249 230 221 202 204 284 206 80 75 83 90 68 41 28 20 15 7 2 1 1 357 354 356 357 356 354 354 353 355
Wind_Speed_850mb
42 39 38 38 44 37 13 5 6 7 7 21 6 6 6 6 2 1 7 8 12 9 10 13 7 13 4 8 12 17 9 7 25 42 40 38 30 38 30 11 20 26 23 16
37 37 34 30 38 39 15 11 6 9 5 9 7 8 6 4 5 3 8 7 2 9 11 10 9 13 3 13 11 7 5 8 16 26 31 29 27 25 29 26 26 39 28 25
34 30 26 25 30 30 9 11 5 8 1 6 14 2 4 7 7 14 12 14 11 11 15 17 15 12 6 11 7 7 7 25 29 28 39 11 17 32 34 25 17 29 38 47
30 25 22 23 21 19 13 7 6 6 2 9 8 8 4 7 4 4 4 6 8 10 11 14 25 27 25 9 16 16 8 18 32 39 42 43 46 42 40 41 42 40 43 46
27 18 19 20 16 15 9 15 11 4 7 4 10 5 5 6 5 6 3 9 15 9 17 22 33 24 25 25 22 20 18 15 31 40 36 39 43 43 43 46 44 38 47 51
29 15 11 13 15 15 9 8 6 10 13 6 9 5 6 1 6 4 6 15 13 19 20 28 37 41 42 31 22 20 10 6 13 26 24 26 28 33 35 33 29 32 33 28
24 12 9 11 11 7 8 7 7 12 2 6 6 2 7 13 9 16 18 15 21 18 28 39 45 52 53 50 39 37 17 28 8 17 23 21 18 7 10 12 22 22 24 24
21 14 12 10 9 6 7 7 7 8 10 7 7 4 6 15 18 21 17 17 15 21 28 21 22 21 22 34 38 33 38 22 6 11 18 31 42 12 4 11 21 23 22 22
20 18 14 10 8 6 4 5 3 4 10 4 9 10 7 13 14 14 4 6 15 18 16 14 16 10 25 5 5 5 14 18 9 18 13 16 13 3 12 15 19 20 25 26
19 15 13 16 12 7 3 7 2 3 15 4 2 7 7 6 11 10 15 7 8 5 5 7 13 17 8 11 4 6 7 7 16 23 16 15 10 4 9 15 9 29 29 42
18 15 13 11 9 6 4 6 4 2 10 22 15 7 13 10 10 7 5 16 11 10 7 7 6 12 8 12 12 9 14 8 9 13 10 16 23 10 11 19 34 39 46 52
21 14 16 13 11 9 8 9 14 10 10 21 26 30 29 28 26 16 9 15 6 8 6 2 9 10 9 16 8 5 9 6 4 8 7 9 11 23 18 17 30 43 52 58
21 18 21 17 13 9 10 15 17 11 9 25 10 3 7 11 20 28 14 8 10 12 12 9 6 9 13 13 13 14 10 11 8 14 10 12 32 11 13 28 40 50 52 59
26 22 17 20 15 15 15 14 13 19 6 4 1 2 11 15 12 19 29 26 12 6 4 4 6 9 9 12 14 18 21 17 25 31 29 25 11 20 33 42 46 52 57 56
23 24 24 22 18 17 16 21 16 21 7 6 20 38 13 17 23 27 27 22 22 11 4 4 6 15 14 22 22 23 12 16 12 15 13 17 26 36 40 43 51 51 57 64
21 19 22 23 20 17 13 9 18 28 17 6 7 6 14 10 11 12 15 16 16 12 8 8 17 26 10 8 13 21 24 24 15 17 24 28 34 38 39 47 49 52 54 58
23 26 25 25 19 20 13 2 6 9 13 4 9 5 10 12 11 9 12 15 7 12 7 14 31 20 14 7 22 33 21 13 15 18 22 29 33 41 43 45 48 51 56 58
19 24 21 19 20 13 14 17 10 11 6 5 5 8 8 15 10 12 14 12 13 15 9 11 12 9 13 10 20 11 9 15 13 12 20 34 40 39 41 42 48 55 58 62
18 24 16 11 15 12 10 15 18 10 7 6 7 6 2 10 8 7 8 11 7 10 10 9 8 7 11 18 18 14 15 11 20 26 32 34 34 36 40 44 49 54 62 66
27 21 9 8 9 12 14 8 8 6 5 9 8 12 8 5 7 7 5 10 6 6 12 10 5 11 36 27 16 8 9 13 22 31 33 34 35 39 44 45 48 54 61 67
27 13 8 13 27 14 5 6 7 9 8 13 14 21 11 0 7 2 5 3 6 6 7 7 7 7 3 6 3 3 10 19 24 25 28 30 35 40 41 44 49 53 60 65
18 14 22 22 8 5 6 7 8 8 7 17 12 10 11 4 5 3 5 5 6 8 10 6 6 6 12 7 5 8 16 19 21 24 28 30 31 34 37 43 48 52 59 63
21 8 10 9 7 7 10 12 9 9 13 12 11 7 9 7 6 6 7 9 10 4 6 6 6 12 9 6 11 14 14 18 22 22 24 27 31 34 36 41 45 52 59 60
9 10 9 10 10 12 12 9 7 8 8 7 7 7 8 8 10 8 9 10 6 7 8 3 7 14 11 11 11 14 17 19 20 23 26 30 33 36 37 40 46 53 58 58
7 7 8 15 20 9 8 8 1 7 8 7 9 3 5 5 8 6 8 7 7 5 6 4 15 11 11 12 13 15 17 19 21 25 29 33 36 38 40 42 46 51 52 56
6 8 9 19 15 17 20 9 6 14 15 10 5 2 4 9 5 7 9 4 3 3 3 14 12 11 12 12 13 15 16 18 22 25 29 32 35 37 38 41 46 50 50 56
8 12 23 25 18 5 6 10 4 12 12 5 4 7 10 5 7 8 6 4 3 1 10 14 11 11 10 11 13 14 17 20 23 26 28 30 32 33 36 45 49 48 50 52
Wind_Direction_850mb
336 343 344 347 351 4 32 247 253 354 285 254 301 15 38 21 56 242 281 285 266 267 282 300 276 257 197 2 321 251 265 273 274 270 278 271 249 267 249 239 259 257 284 275
334 343 347 352 355 0 11 315 3 345 286 274 190 106 162 294 259 281 303 284 327 351 310 294 269 267 26 336 315 339 352 247 289 276 236 236 252 245 257 263 273 262 265 259
330 338 350 357 358 360 40 290 231 118 349 28 325 355 189 226 125 276 287 287 291 274 259 260 276 262 2 331 333 63 326 271 263 270 293 252 275 280 276 261 267 273 260 278
322 331 342 352 358 27 16 331 75 358 10 88 347 279 44 261 243 182 265 231 319 329 278 268 247 253 259 275 251 226 257 262 266 272 273 280 281 278 274 266 261 259 272 282
323 325 346 2 9 50 24 336 326 171 100 280 271 133 137 295 101 279 231 260 6 330 284 298 299 300 284 272 254 269 175 261 267 274 265 257 262 264 258 254 256 251 253 256
327 311 342 358 12 34 14 2 338 291 107 178 261 58 24 215 316 204 326 343 295 287 296 294 284 275 269 263 260 268 237 257 272 263 284 290 266 260 273 250 261 268 275 296
321 298 318 341 355 24 22 351 304 283 179 262 357 336 301 298 327 299 298 284 290 294 302 294 277 260 254 250 240 229 232 262 274 284 299 259 300 160 312 295 288 300 308 330
301 306 297 303 321 359 57 6 344 322 282 320 203 198 317 279 276 246 269 283 291 307 299 291 282 256 236 238 230 226 212 229 250 255 259 285 275 309 212 348 303 335 340 352
295 291 290 293 274 302 96 303 49 312 272 14 26 283 265 293 294 274 225 305 299 301 284 261 266 292 309 204 161 202 174 209 229 260 258 271 113 261 1 318 269 34 1 325
282 280 279 307 241 264 178 293 147 301 284 3 194 292 314 268 313 295 303 301 306 264 264 265 262 266 277 264 234 176 186 179 224 242 252 279 49 54 304 260 358 309 309 314
270 270 264 285 260 253 211 258 271 213 277 302 269 259 229 240 257 254 5 269 213 235 240 274 290 287 284 268 255 207 199 227 213 238 246 244 358 331 335 343 329 325 316 314
252 257 249 263 267 240 239 229 290 283 245 280 288 263 254 245 247 246 241 314 284 346 285 286 284 274 292 305 284 298 279 233 335 255 303 291 295 263 315 338 317 311 313 314
253 250 237 245 252 246 246 257 299 299 298 304 242 209 231 222 242 229 245 235 249 253 296 326 302 282 293 275 284 290 291 188 236 290 237 327 289 330 351 327 309 314 312 312
246 238 242 237 240 245 252 271 278 277 288 287 262 191 252 229 240 218 230 246 267 285 273 237 266 265 279 281 281 284 286 287 282 273 270 335 331 340 327 315 313 317 313 314
241 236 237 230 235 248 258 266 261 257 236 318 293 294 276 228 237 234 230 227 223 202 241 209 246 258 281 270 279 270 328 284 282 290 323 311 309 315 312 318 319 317 316 315
240 238 217 218 229 245 268 242 262 246 244 309 291 18 251 212 201 215 204 211 197 190 207 260 257 264 265 283 266 282 327 319 310 304 314 305 306 303 320 317 316 316 314 315
224 213 212 216 226 247 194 294 164 147 177 224 268 204 151 174 168 155 164 186 202 212 225 239 252 255 222 264 274 291 305 294 304 293 308 307 312 318 317 315 316 316 316 317
215 193 205 217 217 235 249 244 217 196 233 224 272 276 194 177 183 185 185 187 196 213 241 240 237 223 227 252 261 275 309 318 311 316 299 300 310 316 318 318 319 320 321 323
190 178 201 202 235 207 227 219 208 206 191 263 216 259 6 167 193 197 173 212 217 212 221 248 219 247 231 255 312 313 325 339 319 312 309 315 318 320 322 322 322 323 323 326
159 171 162 175 189 179 144 146 167 224 227 223 258 239 246 201 209 199 139 209 224 232 209 150 226 258 252 262 295 322 337 321 318 318 321 322 321 324 322 323 322 322 324 326
173 177 149 152 151 153 186 177 210 175 217 210 230 238 252 70 246 242 176 263 258 256 164 223 223 253 115 150 88 330 323 317 319 316 313 315 319 320 322 322 323 325 328 330
187 175 137 150 175 184 238 208 166 219 236 186 218 177 198 164 226 251 215 254 251 257 168 233 239 106 102 77 23 313 321 326 325 326 323 324 323 323 324 323 325 329 330 332
143 146 144 165 156 203 224 199 202 195 198 167 182 167 158 170 181 225 235 240 224 154 233 242 58 106 61 28 357 340 334 338 336 335 333 333 330 330 332 331 330 333 334 336
176 171 163 221 178 234 214 246 40 87 87 119 157 157 219 203 186 239 238 231 191 224 215 230 91 57 48 24 10 359 350 350 349 348 343 342 341 339 339 336 336 336 337 339
201 192 223 213 237 219 135 246 177 124 127 121 106 161 242 258 254 253 281 247 244 332 28 79 70 54 50 43 24 9 3 359 355 352 347 346 346 346 342 342 342 341 340 342
211 228 256 235 256 219 196 183 240 168 145 124 141 214 218 219 227 242 241 253 256 330 48 78 94 75 62 44 24 13 9 2 356 354 353 352 350 350 346 348 349 349 348 349
215 234 236 261 291 189 200 226 238 167 145 143 171 222 225 249 230 221 202 204 284 206 80 75 83 90 68 41 28 20 15 7 2 1 1 357 354 356 357 356 354 354 353 355